Olathe, KS

10:52 PM CDT on September 24, 2017 (GMT -0500)
Johnson County Executive

Weather History for KOJC - January, 2014

Change the Weather History Date:

Thursday, January 2, 2014

  Actual Average Record
Temperature  
Mean Temperature 10 °F 30 °F  
Max Temperature 18 °F 38 °F 66 °F (1950)
Min Temperature 1 °F 21 °F -12 °F (1979)
Degree Days  
Heating Degree Days 55 35  
Month to date heating degree days 97 70  
Since 1 July heating degree days 2262 2035  
Cooling Degree Days 0 0  
Month to date cooling degree days 0 0  
Year to date cooling degree days 0 0  
Moisture  
Dew Point -1 °F    
Average Humidity 70    
Maximum Humidity 87    
Minimum Humidity 53    
Precipitation  
Precipitation 0.00 in 0.03 in 0.68 in (1965)
Month to date precipitation T 0.06  
Year to date precipitation T 0.06  
Sea Level Pressure  
Sea Level Pressure 30.45 in    
Wind  
Wind Speed 7 mph (NNW)    
Max Wind Speed 17 mph    
Max Gust Speed 22 mph    
Visibility 10 miles    
Events      
T = Trace of Precipitation, MM = Missing Value Source: NWS Daily Summary

Daily Weather History Graph

Daily Weather History Graph

Search for Another Location

Airport or City:

Trip Planner

Search our weather history database for the weather conditions in past years. The results will help you decide how hot, cold, wet, or windy it might be!

Date:

Astronomy

Jan. 02, 2014 Rise Set
Actual Time 7:37 AM CST 5:08 PM CST
Civil Twilight 7:07 AM CST 5:38 PM CST
Nautical Twilight 6:34 AM CST 6:11 PM CST
Astronomical Twilight 6:02 AM CST 6:44 PM CST
Moon 8:20 AM CST (1/2) 7:05 PM CST (1/2)
Length of Visible Light 10h 30m
Length of Day
9h 31m
Waxing Crescent, 3% of the Moon is Illuminated
Jan 2
Waxing Crescent
Jan 7
First Quarter
Jan 15
Full
Jan 23
Last Quarter
Jan 30
New

Hourly Weather History & Observations

Time (CST) Temp. Windchill Dew Point Humidity Pressure Visibility Wind Dir Wind Speed Gust Speed Precip Events Conditions
12:01 AM 8.1 °F -9.6 °F 3.0 °F 80% 30.28 in 9.0 mi NNW 16.1 mph - N/A   Scattered Clouds
12:53 AM 7.0 °F -8.3 °F 1.9 °F 80% 30.33 in 9.0 mi North 11.5 mph - N/A   Partly Cloudy
1:53 AM 5.0 °F -8.1 °F -0.0 °F 80% 30.36 in 10.0 mi NNW 8.1 mph - N/A   Clear
2:53 AM 3.9 °F -11.3 °F -0.9 °F 80% 30.38 in 10.0 mi NNW 10.4 mph - N/A   Clear
3:53 AM 3.0 °F -13.3 °F -2.0 °F 80% 30.40 in 10.0 mi NNW 11.5 mph - N/A   Clear
4:53 AM 3.0 °F -9.3 °F -2.9 °F 76% 30.40 in 10.0 mi NNW 6.9 mph - N/A   Clear
5:53 AM 1.9 °F -9.2 °F -2.9 °F 80% 30.42 in 10.0 mi NNW 5.8 mph - N/A   Clear
6:53 AM 1.0 °F -10.3 °F -4.0 °F 79% 30.43 in 8.0 mi NNW 5.8 mph - N/A   Clear
7:53 AM 1.9 °F -10.6 °F -5.1 °F 72% 30.44 in 6.0 mi NNW 6.9 mph - N/A   Haze
8:53 AM 3.0 °F -12.5 °F -4.0 °F 73% 30.47 in 8.0 mi NNW 10.4 mph - N/A   Partly Cloudy
9:53 AM 7.0 °F -4.5 °F -2.9 °F 64% 30.48 in 10.0 mi NNW 6.9 mph - N/A   Clear
10:53 AM 10.0 °F -1.9 °F -2.9 °F 56% 30.50 in 10.0 mi NNW 8.1 mph - N/A   Clear
11:53 AM 12.0 °F 1.5 °F -2.9 °F 51% 30.47 in 10.0 mi North 6.9 mph - N/A   Scattered Clouds
12:53 PM 14.0 °F 3.9 °F 1.0 °F 56% 30.46 in 10.0 mi NW 6.9 mph - N/A   Clear
1:53 PM 15.1 °F 2.5 °F 1.9 °F 56% 30.45 in 10.0 mi NW 10.4 mph - N/A   Clear
2:53 PM 16.0 °F 4.4 °F 1.9 °F 54% 30.45 in 10.0 mi NNW 9.2 mph - N/A   Mostly Cloudy
3:53 PM 16.0 °F 6.3 °F 1.9 °F 54% 30.47 in 10.0 mi North 6.9 mph - N/A   Overcast
4:53 PM 15.1 °F 3.3 °F 1.9 °F 56% 30.48 in 10.0 mi North 9.2 mph - N/A   Overcast
5:53 PM 12.0 °F 2.7 °F 1.9 °F 64% 30.50 in 10.0 mi North 5.8 mph - N/A   Clear
6:53 PM 10.0 °F 1.8 °F 1.0 °F 67% 30.52 in 10.0 mi North 4.6 mph - N/A   Clear
7:53 PM 9.0 °F -0.9 °F -0.0 °F 67% 30.53 in 10.0 mi North 5.8 mph - N/A   Clear
8:53 PM 8.1 °F -2.0 °F -0.0 °F 70% 30.53 in 10.0 mi North 5.8 mph - N/A   Clear
9:53 PM 6.1 °F -0.9 °F -0.9 °F 73% 30.52 in 10.0 mi North 3.5 mph - N/A   Clear
10:53 PM 5.0 °F - -0.9 °F 76% 30.51 in 10.0 mi Calm Calm - N/A   Clear
11:53 PM 5.0 °F -4.1 °F -0.9 °F 76% 30.50 in 10.0 mi East 4.6 mph - N/A   Clear